Weather History for Keokuk, IA

Change the Weather History Date:

Sunday, March 17, 2013

  Actual Average Record
Temperature  
Mean Temperature 37 °F -  
Max Temperature 42 °F 51 °F 80 °F (2012)
Min Temperature 32 °F 31 °F 10 °F (1941)
Degree Days  
Heating Degree Days 28    
Moisture  
Dew Point 24 °F    
Average Humidity 62    
Maximum Humidity 70    
Minimum Humidity 49    
Precipitation  
Precipitation 0.00 in - - ()
Sea Level Pressure  
Sea Level Pressure 30.04 in    
Wind  
Wind Speed 10 mph (ENE)    
Max Wind Speed 17 mph    
Max Gust Speed 24 mph    
Visibility 10 miles    
Events Snow    
Averages and records for this station are not official NWS values.
T = Trace of Precipitation, MM = Missing Value Source: NWS Daily Summary

Daily Weather History Graph

Daily Weather History Graph

Search for Another Location

Airport:

Trip Planner

Search our weather history database for the weather conditions in past years. The results will help you decide how hot, cold, wet, or windy it might be!

Date:

Astronomy

Mar. 17, 2013 Rise Set
Actual Time 7:13 AM CDT 7:14 PM CDT
Civil Twilight 6:46 AM CDT 7:42 PM CDT
Nautical Twilight 6:14 AM CDT 8:13 PM CDT
Astronomical Twilight 5:42 AM CDT 8:46 PM CDT
Moon 10:25 AM CDT (3/17) 12:24 AM CDT (3/17)
Length of Visible Light 12h 55m
Length of Day
12h 01m
Waxing Crescent, 31% of the Moon is Illuminated
Mar 17
Waxing Crescent
Mar 19
First Quarter
Mar 27
Full
Apr 2
Last Quarter
Apr 10
New

Hourly Weather History & Observations

Time (CDT) Temp. Windchill Dew Point Humidity Pressure Visibility Wind Dir Wind Speed Gust Speed Precip Events Conditions
12:15 AM 33.8 °F 27.0 °F 24.8 °F 70% 30.13 in 10.0 mi North 8.1 mph - N/A   Mostly Cloudy
12:35 AM 33.8 °F 25.3 °F 24.8 °F 70% 30.13 in 10.0 mi North 11.5 mph - N/A   Mostly Cloudy
12:55 AM 33.8 °F 26.4 °F 24.8 °F 70% 30.12 in 10.0 mi North 9.2 mph - N/A   Mostly Cloudy
1:15 AM 33.8 °F 27.0 °F 24.8 °F 70% 30.12 in 10.0 mi North 8.1 mph - N/A   Scattered Clouds
1:35 AM 33.8 °F 26.4 °F 24.8 °F 70% 30.11 in 10.0 mi North 9.2 mph 16.1 mph N/A   Clear
1:55 AM 33.8 °F 27.7 °F 23.0 °F 65% 30.11 in 10.0 mi North 6.9 mph - N/A   Clear
2:15 AM 33.8 °F 26.4 °F 23.0 °F 65% 30.12 in 10.0 mi North 9.2 mph - N/A   Clear
2:35 AM 33.8 °F 26.4 °F 23.0 °F 65% 30.12 in 10.0 mi North 9.2 mph - N/A   Scattered Clouds
2:55 AM 33.8 °F 27.0 °F 23.0 °F 65% 30.11 in 10.0 mi NNE 8.1 mph - N/A   Scattered Clouds
3:15 AM 33.8 °F 26.4 °F 23.0 °F 65% 30.11 in 10.0 mi North 9.2 mph - N/A   Scattered Clouds
3:35 AM 33.8 °F 27.0 °F 21.2 °F 60% 30.12 in 10.0 mi NNE 8.1 mph - N/A   Scattered Clouds
3:55 AM 32.0 °F 25.6 °F 21.2 °F 64% 30.12 in 10.0 mi NNE 6.9 mph - N/A   Clear
4:15 AM 32.0 °F 27.5 °F 21.2 °F 64% 30.11 in 10.0 mi NNE 4.6 mph - N/A   Scattered Clouds
4:35 AM 32.0 °F 25.6 °F 21.2 °F 64% 30.11 in 10.0 mi NNE 6.9 mph - N/A   Mostly Cloudy
4:55 AM 32.0 °F 28.7 °F 21.2 °F 64% 30.11 in 10.0 mi NE 3.5 mph - N/A   Overcast
5:15 AM 32.0 °F 24.8 °F 21.2 °F 64% 30.11 in 10.0 mi ENE 8.1 mph - N/A   Mostly Cloudy
5:35 AM 32.0 °F 24.8 °F 21.2 °F 64% 30.12 in 10.0 mi NE 8.1 mph - N/A   Overcast
5:55 AM 32.0 °F 23.0 °F 21.2 °F 64% 30.13 in 10.0 mi ENE 11.5 mph - N/A   Overcast
6:15 AM 32.0 °F 24.8 °F 21.2 °F 64% 30.13 in 10.0 mi ENE 8.1 mph - N/A   Scattered Clouds
6:35 AM 32.0 °F 25.6 °F 19.4 °F 60% 30.13 in 10.0 mi NE 6.9 mph - N/A   Scattered Clouds
6:55 AM 32.0 °F 23.6 °F 21.2 °F 64% 30.13 in 10.0 mi NE 10.4 mph - N/A   Mostly Cloudy
7:15 AM 32.0 °F 24.2 °F 21.2 °F 64% 30.13 in 10.0 mi ENE 9.2 mph - N/A   Overcast
7:35 AM 32.0 °F 26.4 °F 21.2 °F 64% 30.14 in 10.0 mi NE 5.8 mph - N/A   Overcast
7:55 AM 32.0 °F 24.2 °F 21.2 °F 64% 30.14 in 10.0 mi ENE 9.2 mph - N/A   Overcast
8:15 AM 32.0 °F 24.2 °F 21.2 °F 64% 30.13 in 10.0 mi NE 9.2 mph - N/A   Overcast
8:35 AM 32.0 °F 25.6 °F 21.2 °F 64% 30.13 in 10.0 mi NE 6.9 mph - N/A   Overcast
8:55 AM 33.8 °F 26.4 °F 23.0 °F 65% 30.13 in 10.0 mi ENE 9.2 mph - N/A   Overcast
9:15 AM 33.8 °F 25.3 °F 21.2 °F 60% 30.14 in 10.0 mi ENE 11.5 mph 16.1 mph N/A   Overcast
9:35 AM 33.8 °F 25.3 °F 21.2 °F 60% 30.13 in 10.0 mi East 11.5 mph 20.7 mph N/A   Overcast
9:55 AM 33.8 °F 24.8 °F 21.2 °F 60% 30.14 in 10.0 mi ENE 12.7 mph 18.4 mph N/A   Overcast
10:15 AM 33.8 °F 25.3 °F 21.2 °F 60% 30.14 in 10.0 mi ENE 11.5 mph - N/A   Overcast
10:35 AM 35.6 °F 27.1 °F 23.0 °F 60% 30.14 in 10.0 mi ENE 12.7 mph - N/A   Overcast
10:55 AM 35.6 °F 26.2 °F 21.2 °F 56% 30.12 in 10.0 mi East 15.0 mph - N/A   Overcast
11:15 AM 35.6 °F 26.6 °F 21.2 °F 56% 30.12 in 10.0 mi East 13.8 mph 19.6 mph N/A   Overcast
11:35 AM 35.6 °F 26.2 °F 23.0 °F 60% 30.12 in 10.0 mi East 15.0 mph 18.4 mph N/A   Overcast
11:55 AM 37.4 °F 30.3 °F 23.0 °F 56% 30.11 in 10.0 mi East 10.4 mph - N/A   Overcast
12:15 PM 37.4 °F 29.3 °F 24.8 °F 60% 30.10 in 10.0 mi East 12.7 mph - N/A   Overcast
12:35 PM 37.4 °F 28.2 °F 23.0 °F 56% 30.09 in 10.0 mi East 16.1 mph - N/A   Overcast
12:55 PM 37.4 °F 29.8 °F 24.8 °F 60% 30.08 in 10.0 mi East 11.5 mph - N/A   Overcast
1:15 PM 37.4 °F 29.3 °F 24.8 °F 60% 30.07 in 10.0 mi East 12.7 mph - N/A   Overcast
1:35 PM 39.2 °F 32.5 °F 24.8 °F 56% 30.06 in 10.0 mi East 10.4 mph 19.6 mph N/A   Overcast
1:55 PM 39.2 °F 31.6 °F 24.8 °F 56% 30.05 in 10.0 mi East 12.7 mph 18.4 mph N/A   Overcast
2:15 PM 39.2 °F 31.6 °F 24.8 °F 56% 30.04 in 10.0 mi East 12.7 mph - N/A   Mostly Cloudy
2:35 PM 41.0 °F 33.1 °F 24.8 °F 53% 30.02 in 10.0 mi East 15.0 mph - N/A   Mostly Cloudy
2:55 PM 42.8 °F 35.4 °F 26.6 °F 53% 30.01 in 10.0 mi East 15.0 mph 18.4 mph N/A   Mostly Cloudy
3:15 PM 42.8 °F 35.8 °F 24.8 °F 49% 30.00 in 10.0 mi ENE 13.8 mph - N/A   Mostly Cloudy
3:35 PM 42.8 °F 36.6 °F 26.6 °F 53% 29.99 in 10.0 mi East 11.5 mph - N/A   Mostly Cloudy
3:55 PM 42.8 °F 35.1 °F 26.6 °F 53% 29.98 in 10.0 mi East 16.1 mph 19.6 mph N/A   Scattered Clouds
4:15 PM 42.8 °F 35.1 °F 26.6 °F 53% 29.98 in 10.0 mi East 16.1 mph 19.6 mph N/A   Scattered Clouds
4:35 PM 41.0 °F 32.5 °F 26.6 °F 57% 29.97 in 10.0 mi East 17.3 mph 24.2 mph N/A   Scattered Clouds
4:55 PM 41.0 °F 33.1 °F 26.6 °F 57% 29.97 in 10.0 mi ESE 15.0 mph - N/A   Scattered Clouds
5:15 PM 41.0 °F 34.7 °F 26.6 °F 57% 29.96 in 10.0 mi ESE 10.4 mph 18.4 mph N/A   Mostly Cloudy
5:35 PM 41.0 °F 33.9 °F 26.6 °F 57% 29.95 in 10.0 mi ESE 12.7 mph - N/A   Overcast
5:55 PM 41.0 °F 34.3 °F 26.6 °F 57% 29.95 in 10.0 mi ESE 11.5 mph - N/A   Overcast
6:15 PM 39.2 °F 31.6 °F 26.6 °F 61% 29.95 in 10.0 mi East 12.7 mph 17.3 mph N/A   Overcast
6:35 PM 39.2 °F 30.5 °F 26.6 °F 61% 29.94 in 10.0 mi East 16.1 mph 20.7 mph N/A   Overcast
6:55 PM 39.2 °F 30.5 °F 26.6 °F 61% 29.93 in 10.0 mi East 16.1 mph - N/A   Overcast
7:15 PM 39.2 °F 31.2 °F 26.6 °F 61% 29.92 in 10.0 mi East 13.8 mph - N/A   Overcast
7:35 PM 39.2 °F 31.2 °F 26.6 °F 61% 29.93 in 10.0 mi East 13.8 mph 23.0 mph N/A   Overcast
7:55 PM 39.2 °F 30.8 °F 26.6 °F 61% 29.92 in 10.0 mi East 15.0 mph - N/A   Overcast
8:15 PM 39.2 °F 32.0 °F 26.6 °F 61% 29.92 in 10.0 mi East 11.5 mph - N/A   Overcast
8:35 PM 39.2 °F 31.6 °F 26.6 °F 61% 29.91 in 10.0 mi East 12.7 mph - N/A   Overcast
8:55 PM 39.2 °F 33.6 °F 26.6 °F 61% 29.92 in 10.0 mi East 8.1 mph 16.1 mph N/A   Overcast
9:15 PM 39.2 °F 31.6 °F 26.6 °F 61% 29.90 in 10.0 mi East 12.7 mph - N/A   Overcast
9:35 PM 37.4 °F 29.3 °F 26.6 °F 65% 29.89 in 10.0 mi East 12.7 mph 18.4 mph N/A   Overcast
9:55 PM 37.4 °F 29.8 °F 26.6 °F 65% 29.89 in 10.0 mi East 11.5 mph - N/A   Overcast
10:15 PM 37.4 °F 28.5 °F 26.6 °F 65% 29.88 in 10.0 mi East 15.0 mph - N/A   Overcast
10:35 PM 37.4 °F 28.9 °F 28.4 °F 70% 29.88 in 7.0 mi East 13.8 mph - N/A   Overcast
10:55 PM 37.4 °F 29.8 °F 28.4 °F 70% 29.88 in 10.0 mi East 11.5 mph 17.3 mph N/A   Overcast
11:15 PM 37.4 °F 29.8 °F 28.4 °F 70% 29.87 in 7.0 mi East 11.5 mph - N/A Snow Light Snow
11:35 PM 37.4 °F 30.3 °F 28.4 °F 70% 29.86 in 10.0 mi ENE 10.4 mph - N/A   Overcast
11:55 PM 37.4 °F 30.8 °F 28.4 °F 70% 29.86 in 7.0 mi ENE 9.2 mph - N/A Snow Light Snow